[[{"header":{"parameterUnit":"m.s-1","parameterCategory":1,"la1":30.2991,"la2":30.254,"lo1":-89.0895,"lo2":-89.0444,"dy":0.0017,"dx":0.0017,"nx":28,"ny":28,"refTime":"2024-07-30T09:00:00:Z","depth":0,"parameterNumber":2,"parameterNumberName":"U-component_of_WINDS"},"data":[0,0,0,0,0,0,0,0,0,0,0,0,0,0,0,0,0,0,0,0,0,0,0,0,0,0,0,0,0,0,0,0,0,0,0,0,0,0,0,0,0,0,0,0,0,0,0,0,0,0,0,0,0,0,0,0,0,0,3.9662,3.9664,0,3.9824,3.9826,3.9828,3.9795,3.9792,3.9789,3.9786,3.9956,3.9964,3.9971,0,0,0,0,0,0,0,0,0,0,0,0,0,3.9329,3.9335,3.9662,3.9664,3.9666,3.9824,3.9826,3.9828,3.9796,3.9792,3.9788,3.9785,3.9954,3.9963,3.9971,0,0,0,0,0,0,0,0,0,0,0,0,0,3.9481,3.9337,3.9662,3.9669,3.9671,3.9824,3.9826,3.9829,3.9796,3.9792,3.9787,3.9783,3.9951,3.9962,3.9973,4.013,0,0,4.0006,4.0011,0,0,0,0,0,0,0,0,3.9472,3.9493,3.9666,3.9669,3.9671,3.9785,3.9771,3.993,3.9798,3.9749,3.9786,3.9781,3.9903,3.9918,3.9958,4.0138,4.0145,4.0007,4.0014,4.0018,4.0022,0,0,0,0,0,0,0,3.9461,3.9486,3.9726,3.9668,3.9672,3.9665,3.9682,3.9801,3.9849,3.9753,3.9751,3.977,3.9904,3.9948,3.9962,4.0147,4.0007,4.0017,4.0023,4.0028,4.0465,4.047,0,0,0,0,0,0,3.9448,3.9477,3.9721,3.9731,3.9558,3.9675,3.9693,3.9753,3.9848,3.9858,3.9774,3.9768,3.9931,3.9949,3.9968,4.0159,4.0018,4.0029,4.0035,4.046,4.0466,4.0472,0,0,0,0,0,0,3.9441,3.947,3.9715,3.9604,3.9634,3.9685,3.9753,3.9759,3.9802,3.9864,3.9873,3.9809,3.9928,3.9952,4.009,4.0164,4.0034,4.0044,4.0454,4.0462,4.0469,4.0541,0,0,0,0,0,0,3.9431,3.9468,3.9527,3.9605,3.964,3.9833,3.9757,3.9765,3.9821,3.9815,3.9899,3.9909,3.9927,4.0073,4.0101,4.0177,4.0052,4.0448,4.0458,4.0467,4.0533,4.055,4.0566,0,0,0,0,0,3.942,3.9541,3.953,3.956,3.9715,3.9837,3.9857,3.9874,3.9827,3.9888,3.9927,3.9907,4.0151,4.0088,4.0118,4.0199,4.0443,4.0455,4.0466,4.0525,4.0547,4.0565,0,0,0,0,0,0,3.9472,3.9552,3.954,3.969,3.9757,3.9831,3.9908,3.9896,3.9979,3.997,3.9988,4.0007,4.0147,4.0187,4.0114,4.0356,4.0291,4.0309,4.0325,4.0347,4.0363,4.0351,4.0061,0,0,0,0,0,3.95,3.9591,3.9657,3.9784,3.9817,3.9857,3.9911,3.9918,3.9988,4.0017,4.0066,4.0136,4.0229,4.029,4.0379,4.0538,4.0557,4.0608,4.0625,4.0638,4.0654,4.0742,4.0766,4.0509,4.0509,4.0509,0,0,3.9561,3.9616,3.9673,3.9795,3.9848,3.9943,3.9881,3.9984,4.0056,4.0033,4.0165,4.0204,4.0284,4.0433,4.0501,4.047,4.0729,4.0653,4.0663,4.0672,4.0756,4.0781,4.0802,4.0517,4.0515,4.0514,0,0,3.9721,3.9771,3.9882,3.9936,4.0016,4.0041,4.0068,4.0145,4.0169,4.0302,4.0287,4.0373,4.0532,4.0589,4.064,4.0822,4.0806,4.085,4.0937,4.1023,4.1043,4.1061,4.1127,4.1151,4.0865,4.0865,4.0866,0,3.9787,3.9928,3.9941,4.0046,4.0101,4.0083,4.0197,4.0249,4.0354,4.0393,4.0357,4.0556,4.0609,4.0772,4.0816,4.0857,4.0889,4.0841,4.1039,4.1057,4.1074,4.1137,4.1162,4.087,4.087,4.0869,4.0869,0,4.0006,4.0105,4.0185,4.0286,4.035,4.0459,4.049,4.0553,4.0555,4.0585,4.0721,4.0783,4.0885,4.0924,4.0926,4.1088,4.1066,4.1034,4.0969,4.1103,4.1163,4.1187,4.0877,4.0876,4.0874,4.0873,0,0,4.0204,4.031,4.0339,4.0385,4.0472,4.0549,4.0658,4.0756,4.081,4.0884,4.0976,4.1111,4.1082,4.1139,4.1149,4.1224,4.1365,4.1183,4.1185,4.1216,4.1548,4.1572,4.1599,4.1355,4.136,4.1364,4.1542,0,4.0372,4.0562,4.0577,4.0749,4.0841,4.0825,4.092,4.0984,4.1016,4.1099,4.1134,4.123,4.1184,4.1218,4.1292,4.1332,4.1432,4.132,4.1443,4.1447,4.1424,4.163,4.1656,4.1821,4.1565,4.1569,4.1572,0,4.0594,4.0672,4.0853,4.0927,4.0966,4.1051,4.1142,4.1222,4.1295,4.1313,4.1376,4.1375,4.1489,4.1418,4.1576,4.1499,4.155,4.1578,4.1585,4.1597,4.1518,4.165,4.1874,4.1899,4.1608,4.1605,4.1603,0,4.0721,4.0872,4.1,4.1039,4.1129,4.1189,4.123,4.1298,4.1356,4.1436,4.1474,4.1567,4.1619,4.1691,4.1716,4.1662,4.1873,4.1804,4.1892,4.1891,4.1937,4.1934,4.2174,4.1969,4.1969,4.1968,4.1968,0,4.0908,4.1019,4.1058,4.1137,4.1262,4.1279,4.1402,4.144,4.1501,4.1588,4.158,4.1662,4.1689,4.1776,4.1796,4.1924,4.1947,4.1966,4.197,4.1967,4.1965,4.2002,4.1991,4.1975,4.1974,4.1972,4.1971,0,4.1071,4.1102,4.124,4.1313,4.1334,4.1423,4.1486,4.1563,4.1592,4.1702,4.1729,4.1776,4.1878,4.191,4.2034,4.2047,4.2197,4.219,4.2172,4.2173,4.2258,4.225,4.2531,4.2569,4.2338,4.234,4.2342,0,4.1189,4.1274,4.1356,4.1413,4.1455,4.1547,4.1606,4.1627,4.1689,4.1778,4.1845,4.1945,4.2027,4.2191,4.2237,4.2332,4.2328,4.242,4.2343,4.2337,4.2331,4.2326,4.2335,4.2435,4.2437,4.2439,4.2441,0,4.1395,4.1406,4.149,4.1581,4.1651,4.1723,4.1793,4.184,4.1871,4.1941,4.2044,4.2108,4.2233,4.2334,4.243,4.2473,4.2464,4.2465,4.249,4.2488,4.2474,4.2484,4.2212,4.2459,4.2457,4.2455,4.2455,4.2454,4.154,4.1615,4.1685,4.1779,4.1834,4.1899,4.1974,4.2013,4.2099,4.2202,4.2209,4.2322,4.2394,4.2521,4.257,4.2659,4.2632,4.2669,4.2679,4.2688,4.2695,4.2459,4.2676,4.2676,4.2675,4.2675,4.2675,0,4.1747,4.179,4.1877,4.1974,4.2049,4.2031,4.2107,4.2171,4.227,4.2337,4.2417,4.2537,4.2634,4.2688,4.2786,4.2847,4.2845,4.2872,4.2868,4.2879,4.2712,4.2681,4.2872,4.2872,4.2872,4.2872,4.2872,4.2872,4.1863,4.1989,4.2008,4.2162,4.2206,4.2314,4.236,4.242,4.2474,4.2607,4.2688,4.2721,4.2784,4.2886,4.2975,4.2988,4.3025,4.3056,4.3066,4.291,4.289,4.2871,4.2841,4.3063,4.3064,4.3225,4.3227,4.3228]},{"header":{"parameterUnit":"m.s-1","parameterCategory":1,"la1":30.2991,"la2":30.254,"lo1":-89.0895,"lo2":-89.0444,"dy":0.0017,"dx":0.0017,"nx":28,"ny":28,"refTime":"2024-07-30T09:00:00:Z","depth":0,"parameterNumber":3,"parameterNumberName":"V-component_of_WINDS"},"data":[0,0,0,0,0,0,0,0,0,0,0,0,0,0,0,0,0,0,0,0,0,0,0,0,0,0,0,0,0,0,0,0,0,0,0,0,0,0,0,0,0,0,0,0,0,0,0,0,0,0,0,0,0,0,0,0,0,0,-1.5776,-1.5776,0,-1.5792,-1.5793,-1.5793,-1.577,-1.5769,-1.5769,-1.5768,-1.5785,-1.5786,-1.5787,0,0,0,0,0,0,0,0,0,0,0,0,0,-1.5725,-1.5726,-1.5776,-1.5776,-1.5776,-1.5792,-1.5793,-1.5793,-1.577,-1.5769,-1.5768,-1.5767,-1.5785,-1.5786,-1.5788,0,0,0,0,0,0,0,0,0,0,0,0,0,-1.5745,-1.5726,-1.5776,-1.5767,-1.5766,-1.5792,-1.5793,-1.5793,-1.5771,-1.5769,-1.5768,-1.5767,-1.5784,-1.5786,-1.5788,-1.5823,0,0,-1.5793,-1.5794,0,0,0,0,0,0,0,0,-1.5744,-1.5747,-1.5768,-1.5768,-1.5767,-1.5778,-1.5781,-1.5803,-1.5771,-1.5769,-1.5768,-1.5766,-1.5784,-1.5786,-1.5791,-1.5824,-1.5825,-1.5794,-1.5795,-1.5795,-1.5796,0,0,0,0,0,0,0,-1.5742,-1.5746,-1.5782,-1.5768,-1.5768,-1.5762,-1.5764,-1.5785,-1.5783,-1.5769,-1.5767,-1.577,-1.5783,-1.579,-1.5792,-1.5825,-1.5793,-1.5795,-1.5796,-1.5797,-1.5888,-1.5889,0,0,0,0,0,0,-1.5742,-1.5745,-1.5782,-1.5783,-1.5752,-1.5764,-1.5766,-1.5776,-1.5783,-1.5783,-1.5771,-1.5769,-1.5787,-1.5789,-1.5792,-1.5834,-1.5795,-1.5797,-1.5798,-1.5887,-1.5888,-1.589,0,0,0,0,0,0,-1.5741,-1.5745,-1.5781,-1.5763,-1.5768,-1.5766,-1.5778,-1.5777,-1.5783,-1.5784,-1.5783,-1.5778,-1.5786,-1.579,-1.5816,-1.5834,-1.5798,-1.58,-1.5885,-1.5887,-1.5889,-1.5918,0,0,0,0,0,0,-1.574,-1.5745,-1.5759,-1.5764,-1.5769,-1.5805,-1.5779,-1.5778,-1.5786,-1.5784,-1.579,-1.579,-1.5786,-1.5813,-1.5818,-1.5836,-1.5801,-1.5883,-1.5886,-1.5888,-1.5915,-1.5921,-1.5925,0,0,0,0,0,-1.5738,-1.5766,-1.5759,-1.5764,-1.5785,-1.5806,-1.5808,-1.5802,-1.5788,-1.5801,-1.5802,-1.579,-1.5832,-1.5816,-1.5821,-1.584,-1.5882,-1.5885,-1.5888,-1.5913,-1.592,-1.5925,0,0,0,0,0,0,-1.5763,-1.5767,-1.5759,-1.579,-1.5798,-1.5802,-1.5818,-1.5809,-1.5821,-1.5818,-1.581,-1.5812,-1.584,-1.5843,-1.5825,-1.5875,-1.5855,-1.5859,-1.5872,-1.5878,-1.5883,-1.5882,-1.5803,0,0,0,0,0,-1.5772,-1.5789,-1.5791,-1.5818,-1.5822,-1.582,-1.5828,-1.5823,-1.5831,-1.5834,-1.5836,-1.5844,-1.5859,-1.5869,-1.5882,-1.5916,-1.5917,-1.5932,-1.5937,-1.5941,-1.5944,-1.5962,-1.5968,-1.5899,-1.5899,-1.5899,0,0,-1.5792,-1.5796,-1.5806,-1.5823,-1.5828,-1.5845,-1.5823,-1.5841,-1.5854,-1.5837,-1.5861,-1.5864,-1.5872,-1.5902,-1.5915,-1.5905,-1.5964,-1.5945,-1.5948,-1.5949,-1.5966,-1.5972,-1.5978,-1.5901,-1.5901,-1.5901,0,0,-1.5835,-1.584,-1.5863,-1.5868,-1.5877,-1.5875,-1.5881,-1.5886,-1.5887,-1.5912,-1.5899,-1.5914,-1.5939,-1.5946,-1.5952,-1.5999,-1.5988,-1.6003,-1.6029,-1.6047,-1.6052,-1.6057,-1.6073,-1.6079,-1.6007,-1.6007,-1.6007,0,-1.5858,-1.5882,-1.5876,-1.5895,-1.5903,-1.5888,-1.5912,-1.5918,-1.593,-1.5936,-1.5924,-1.5956,-1.5961,-1.5992,-1.6003,-1.6009,-1.6015,-1.6002,-1.6052,-1.6056,-1.6061,-1.6076,-1.6082,-1.6009,-1.6009,-1.6008,-1.6008,0,-1.591,-1.5927,-1.5945,-1.5957,-1.5967,-1.5988,-1.5985,-1.5996,-1.599,-1.5989,-1.6015,-1.602,-1.6034,-1.6041,-1.6036,-1.6072,-1.6065,-1.6053,-1.6032,-1.6069,-1.6083,-1.6089,-1.6011,-1.6011,-1.601,-1.601,0,0,-1.5969,-1.5977,-1.5984,-1.5989,-1.5997,-1.6011,-1.6032,-1.6046,-1.6055,-1.6064,-1.6081,-1.6104,-1.6092,-1.61,-1.6095,-1.611,-1.6146,-1.6096,-1.6096,-1.6105,-1.6186,-1.6195,-1.6202,-1.614,-1.6141,-1.6142,-1.6185,0,-1.6012,-1.6048,-1.6042,-1.6077,-1.6093,-1.6079,-1.6097,-1.6105,-1.6105,-1.6119,-1.6119,-1.6135,-1.6119,-1.6123,-1.6138,-1.6139,-1.6162,-1.6136,-1.6155,-1.6156,-1.6153,-1.6209,-1.6219,-1.626,-1.6191,-1.6192,-1.6193,0,-1.6067,-1.6078,-1.6114,-1.612,-1.6126,-1.6142,-1.6155,-1.6168,-1.6176,-1.6175,-1.6184,-1.6176,-1.6197,-1.6176,-1.6205,-1.6187,-1.6195,-1.6197,-1.6198,-1.6199,-1.6176,-1.6212,-1.6273,-1.6279,-1.6201,-1.6201,-1.62,0,-1.6106,-1.613,-1.6155,-1.616,-1.6167,-1.6179,-1.6182,-1.6189,-1.6198,-1.6209,-1.6214,-1.6228,-1.6235,-1.6246,-1.6242,-1.6227,-1.6271,-1.6251,-1.6271,-1.6271,-1.6281,-1.628,-1.6343,-1.6287,-1.6287,-1.6286,-1.6286,0,-1.6154,-1.6177,-1.6172,-1.6187,-1.6212,-1.6206,-1.6231,-1.6233,-1.6239,-1.6254,-1.6244,-1.6258,-1.6253,-1.6267,-1.6264,-1.6288,-1.6292,-1.6292,-1.6291,-1.6292,-1.6292,-1.6297,-1.6294,-1.6288,-1.6288,-1.6287,-1.6287,0,-1.6202,-1.62,-1.6226,-1.623,-1.6232,-1.625,-1.6254,-1.6269,-1.6268,-1.6288,-1.6292,-1.6292,-1.6308,-1.6306,-1.6324,-1.6322,-1.6352,-1.6348,-1.6349,-1.6348,-1.6369,-1.6367,-1.6437,-1.6446,-1.6384,-1.6384,-1.6385,0,-1.6233,-1.625,-1.6256,-1.6266,-1.627,-1.6285,-1.6294,-1.6289,-1.6299,-1.6309,-1.6322,-1.6338,-1.635,-1.6376,-1.6378,-1.6392,-1.6388,-1.6411,-1.6389,-1.6391,-1.6387,-1.6386,-1.6388,-1.6415,-1.6416,-1.6417,-1.6417,0,-1.6287,-1.6285,-1.6298,-1.6311,-1.6322,-1.6332,-1.6341,-1.635,-1.6345,-1.6357,-1.6373,-1.6383,-1.6401,-1.6417,-1.643,-1.6434,-1.6425,-1.6424,-1.6429,-1.6431,-1.6431,-1.6431,-1.636,-1.6422,-1.6422,-1.6421,-1.6421,-1.6421,-1.6327,-1.6341,-1.6348,-1.6363,-1.637,-1.6378,-1.6392,-1.6393,-1.6407,-1.6421,-1.6418,-1.6436,-1.6444,-1.6461,-1.6466,-1.6481,-1.6472,-1.648,-1.6482,-1.6484,-1.6486,-1.6429,-1.6483,-1.6483,-1.6483,-1.6483,-1.6483,0,-1.6381,-1.6385,-1.6399,-1.6411,-1.6423,-1.6414,-1.6423,-1.6434,-1.645,-1.6458,-1.647,-1.6489,-1.6504,-1.6507,-1.6521,-1.6533,-1.6529,-1.6537,-1.6535,-1.6536,-1.6493,-1.6487,-1.6539,-1.6539,-1.6539,-1.6539,-1.6539,-1.6539,-1.641,-1.6434,-1.6433,-1.646,-1.6463,-1.6482,-1.6488,-1.6496,-1.6502,-1.6524,-1.6536,-1.6538,-1.6543,-1.6558,-1.6572,-1.6572,-1.6578,-1.6587,-1.6586,-1.6545,-1.6539,-1.6534,-1.6528,-1.6588,-1.6588,-1.6628,-1.6628,-1.6628]}]]